User: anonymous   Login
Location: La Vergne
(36.0160°N, 86.5820°W)
Time: 10:34:10
(UTC-05:00)
Language:

Cosmos 1703 Rocket - Orbit

View from above orbital plane
View from above orbital plane
View from above satellite
View from above satellite

Ground track
Ground track

The orbit data is extracted from the following two-line orbital elements,

1 16263U 85108B   14303.55010868  .00000511  00000-0  60620-4 0  8101
2 16263 082.5018 295.2952 0018700 270.1634 229.6227 14.82515684562026
Epoch (UTC): 30 October 2014 13:12:09
Eccentricity: 0.0018700
inclination: 82.5018°
perigee height: 608 km
apogee height: 634 km
right ascension of ascending node: 295.2952°
argument of perigee: 270.1634°
revolutions per day: 14.82515684
mean anomaly at epoch: 229.6227°
orbit number at epoch: 56202

The dashed part of the orbit path shows where the satellite is in the earth's shadow,  

DLR